Weather History for Fairbanks Eiels, AK

Change the Weather History Date:

Friday, August 23, 2013

  Actual Average Record
Temperature  
Mean Temperature 51 °F -  
Max Temperature 54 °F 63 °F 80 °F (1950)
Min Temperature 47 °F 43 °F 25 °F (1974)
Degree Days  
Heating Degree Days 14    
Growing Degree Days 1 (Base 50)    
Moisture  
Dew Point 50 °F    
Average Humidity 95    
Maximum Humidity 100    
Minimum Humidity 88    
Precipitation  
Precipitation 0.82 in - - ()
Sea Level Pressure  
Sea Level Pressure 29.56 in    
Wind  
Wind Speed 4 mph (WSW)    
Max Wind Speed 10 mph    
Max Gust Speed -    
Visibility 7 miles    
Events Rain    
Averages and records for this station are not official NWS values.
T = Trace of Precipitation, MM = Missing Value Source: NWS Daily Summary

Daily Weather History Graph

Daily Weather History Graph

Search for Another Location

Airport:

Trip Planner

Search our weather history database for the weather conditions in past years. The results will help you decide how hot, cold, wet, or windy it might be!

Date:

Astronomy

Aug. 23, 2013 Rise Set
Actual Time 6:02 AM AKDT 9:36 PM AKDT
Civil Twilight 5:02 AM AKDT 10:36 PM AKDT
Nautical Twilight 3:24 AM AKDT 12:10 AM AKDT
Astronomical Twilight Sun does not rise Sun does not rise
Moon 9:20 PM AKDT (8/23) 10:40 AM AKDT (8/23)
Length of Visible Light 17h 33m
Length of Day
15h 34m
Waning Gibbous, 90% of the Moon is Illuminated
Aug 23
Waning Gibbous
Aug 28
Last Quarter
Sep 5
New
Sep 12
First Quarter
Sep 19
Full

Hourly Weather History & Observations

Time (AKDT) Temp. Dew Point Humidity Pressure Visibility Wind Dir Wind Speed Gust Speed Precip Events Conditions
12:04 AM 53.6 °F 51.8 °F 94% 29.59 in 10.0 mi Calm Calm - N/A Rain Light Rain
12:55 AM 52.3 °F 51.3 °F 96% 29.58 in 10.0 mi Variable 3.5 mph - 0.00 in   Overcast
1:10 AM 51.8 °F 51.8 °F 100% 29.58 in 10.0 mi Calm Calm - N/A Rain Light Rain
1:44 AM 51.8 °F 51.8 °F 100% 29.57 in 10.0 mi SE 4.6 mph - N/A Rain Light Rain
1:55 AM 52.7 °F 51.8 °F 97% 29.57 in 10.0 mi SE 3.5 mph - 0.02 in Rain Light Rain
2:06 AM 51.8 °F 51.8 °F 100% 29.57 in 10.0 mi Calm Calm - N/A Rain Light Rain
2:55 AM 51.3 °F 50.4 °F 97% 29.57 in 10.0 mi Calm Calm - 0.06 in Rain Light Rain
3:34 AM 51.8 °F 50.0 °F 94% 29.57 in 9.0 mi Variable 3.5 mph - N/A Rain Light Rain
3:55 AM 51.4 °F 50.9 °F 98% 29.56 in 8.0 mi SE 4.6 mph - 0.08 in Rain Light Rain
3:58 AM 51.8 °F 51.8 °F 100% 29.56 in 9.0 mi Variable 3.5 mph - N/A Rain Light Rain
4:45 AM 51.8 °F 50.0 °F 94% 29.55 in 10.0 mi SSE 4.6 mph - N/A Rain Light Rain
4:55 AM 51.3 °F 50.4 °F 97% 29.56 in 7.0 mi Variable 4.6 mph - 0.05 in Rain Light Rain
4:59 AM 51.8 °F 50.0 °F 94% 29.56 in 4.0 mi Variable 5.8 mph - N/A Rain Rain
5:00 AM 51.8 °F 50.0 °F 94% 29.56 in 4.0 mi WSW 9.2 mph - N/A Rain Rain
5:02 AM 51.8 °F 50.0 °F 94% 29.56 in 3.0 mi West 10.4 mph - N/A Rain Rain
5:03 AM 51.8 °F 50.0 °F 94% 29.56 in 3.0 mi West 10.4 mph - N/A Rain Heavy Rain
5:05 AM 51.8 °F 50.0 °F 94% 29.56 in 3.0 mi West 8.1 mph - N/A Rain Light Rain
5:06 AM 51.8 °F 50.0 °F 94% 29.56 in 3.0 mi Variable 6.9 mph - N/A Rain Light Rain
5:19 AM 50.0 °F 48.2 °F 94% 29.56 in 10.0 mi Calm Calm - N/A Rain Light Rain
5:48 AM 51.8 °F 50.0 °F 94% 29.56 in 10.0 mi Variable 3.5 mph - N/A Rain Light Rain
5:55 AM 50.9 °F 49.6 °F 95% 29.56 in 10.0 mi Variable 4.6 mph - 0.13 in Rain Light Rain
6:09 AM 50.0 °F 48.2 °F 94% 29.55 in 10.0 mi Variable 4.6 mph - N/A Rain Light Rain
6:29 AM 50.0 °F 48.2 °F 94% 29.55 in 10.0 mi Variable 3.5 mph - N/A Rain Light Rain
6:55 AM 50.4 °F 49.3 °F 96% 29.55 in 10.0 mi Variable 5.8 mph - 0.01 in Rain Light Rain
7:03 AM 50.0 °F 50.0 °F 100% 29.55 in 2.0 mi Variable 5.8 mph - N/A Rain Light Rain
7:09 AM 50.0 °F 50.0 °F 100% 29.55 in 6.0 mi Variable 4.6 mph - N/A Rain Light Rain
7:31 AM 50.0 °F 50.0 °F 100% 29.55 in 2.0 mi Variable 6.9 mph - N/A Rain Light Rain
7:41 AM 50.0 °F 50.0 °F 100% 29.55 in 5.0 mi WSW 9.2 mph - N/A Rain Light Rain
7:55 AM 50.5 °F 49.3 °F 95% 29.55 in 2.0 mi Variable 5.8 mph - 0.03 in Rain Light Rain
8:23 AM - 50.0 °F N/A% 29.55 in 3.0 mi SW 10.4 mph - N/A Rain Light Rain
8:55 AM 50.7 °F 49.6 °F 96% 29.55 in 2.0 mi Variable 4.6 mph - 0.04 in Rain Light Rain
9:55 AM 50.4 °F 49.3 °F 96% 29.54 in 2.0 mi SSW 5.8 mph - 0.03 in Rain Light Rain
10:33 AM 50.0 °F 50.0 °F 100% 29.54 in 2.0 mi SSW 5.8 mph - N/A Rain Light Rain
10:48 AM 51.8 °F 50.0 °F 94% 29.54 in 3.0 mi SSW 6.9 mph - N/A Rain Light Rain
10:55 AM 51.1 °F 50.0 °F 96% 29.54 in 3.0 mi SSW 6.9 mph - 0.02 in Rain Light Rain
11:14 AM 51.8 °F 50.0 °F 94% 29.54 in 6.0 mi SW 5.8 mph - N/A Rain Light Rain
11:55 AM 52.5 °F 51.4 °F 96% 29.54 in 2.0 mi SSW 5.8 mph - 0.03 in Rain Light Rain
12:16 PM 53.6 °F 51.8 °F 94% 29.54 in 3.0 mi SW 4.6 mph - N/A Rain Light Rain
12:23 PM 53.6 °F 51.8 °F 94% 29.53 in 3.0 mi Calm Calm - N/A Rain Light Rain
12:36 PM 53.6 °F 51.8 °F 94% 29.53 in 1.8 mi SW 3.5 mph - N/A Rain Light Rain
12:47 PM 53.6 °F 51.8 °F 94% 29.53 in 2.5 mi Calm Calm - N/A Rain Rain
12:55 PM 53.1 °F 51.6 °F 95% 29.54 in 5.0 mi Calm Calm - 0.14 in Rain Light Rain
1:26 PM 53.6 °F 51.8 °F 94% 29.54 in 10.0 mi West 5.8 mph - N/A Rain Light Rain
1:55 PM 53.8 °F 51.8 °F 93% 29.55 in 10.0 mi West 3.5 mph - 0.11 in Rain Light Rain
2:07 PM 53.6 °F 51.8 °F 94% 29.55 in 7.0 mi WSW 4.6 mph - N/A Rain Light Rain
2:17 PM 53.6 °F 51.8 °F 94% 29.55 in 7.0 mi Variable 5.8 mph - N/A Rain Light Rain
2:55 PM 54.0 °F 51.8 °F 92% 29.55 in 10.0 mi WSW 5.8 mph - 0.01 in Rain Light Rain
4:55 PM 55.4 °F 51.8 °F 88% 29.55 in 10.0 mi North 4.6 mph - N/A Rain Light Rain
5:36 PM 55.4 °F 51.8 °F 88% 29.56 in 10.0 mi North 4.6 mph - N/A Rain Light Rain
5:55 PM 53.6 °F 51.8 °F 94% 29.57 in 10.0 mi North 4.6 mph - N/A   Overcast
6:55 PM 53.6 °F 51.8 °F 94% 29.58 in 10.0 mi Variable 4.6 mph - N/A Rain Light Rain
7:04 PM 53.6 °F 51.8 °F 94% 29.58 in 10.0 mi Variable 3.5 mph - N/A Rain Light Rain
7:55 PM 53.2 °F 52.0 °F 95% 29.59 in 10.0 mi Variable 3.5 mph - 0.05 in   Mostly Cloudy
8:03 PM 53.6 °F 51.8 °F 94% 29.59 in 10.0 mi Variable 4.6 mph - N/A   Mostly Cloudy
8:55 PM 52.7 °F 50.9 °F 94% 29.61 in 10.0 mi NNW 8.1 mph - 0.01 in   Overcast
9:55 PM 48.7 °F 46.6 °F 92% 29.63 in 10.0 mi North 5.8 mph - N/A   Overcast
10:55 PM 47.3 °F 45.0 °F 92% 29.65 in 10.0 mi North 8.1 mph - N/A   Overcast
11:55 PM 47.8 °F 45.0 °F 90% 29.68 in 10.0 mi Variable 3.5 mph - N/A   Overcast